{"data":{"norad_id":58224,"epoch":"2026-05-25T03:19:46.379136Z","epoch_age_seconds":56323,"freshness":"FRESH","line1":"1 58224U 23170U   26145.13873124  .00004727  00000+0  18119-3 0  9993","line2":"2 58224  43.0015 122.2671 0001952 277.5087  82.5543 15.27582674141998","mean_motion":15.27582674,"eccentricity":0.0001952,"inclination_deg":43.0015,"raan_deg":122.2671,"arg_perigee_deg":277.5087,"mean_anomaly_deg":82.5543,"bstar":0.00018119,"rev_number":14199,"period_min":94.266583701774,"perigee_km":481.70178717037,"apogee_km":484.38039109637,"semimajor_km":6861.1780891334,"source":"CELESTRAK","updated_at":"2026-05-25T13:38:18.577848Z"}}